FW6650 Weather Reports


Display with metric or nautical units.
time (UTC)temp
F
wind
direction
speed
MPH
gust
MPH
rain 1hr
in
rain 24hr
in
rain mn
in
humidity
%
barometer
mb
20260901205526 83 360 4.0 8.0 0.00 0.00 0.00 49 1014.2
20260901205024 83 360 2.0 8.0 0.00 0.00 0.00 49 1014.2
20260901204551 83 360 0.0 2.0 0.00 0.00 0.00 49 1014.1
20260901204026 82 0 0.0 2.0 0.00 0.00 0.00 50 1014.1
20260901203528 82 360 0.0 4.0 0.00 0.00 0.00 50 1014.1
20260901203057 83 360 0.0 5.0 0.00 0.00 0.00 50 1014.1
20260901202526 83 0 1.0 5.0 0.00 0.00 0.00 50 1014.1
20260901202032 83 360 1.0 6.0 0.00 0.00 0.00 50 1014.2
20260901201548 83 360 1.0 6.0 0.00 0.00 0.00 50 1014.0
20260901201026 83 360 1.0 4.0 0.00 0.00 0.00 50 1014.1
20260901200527 83 360 2.0 5.0 0.00 0.00 0.00 49 1014.1
20260901200046 83 360 2.0 8.0 0.00 0.00 0.00 49 1014.1
20260901195525 83 360 1.0 9.0 0.00 0.00 0.00 49 1014.2
20260901195025 83 360 4.0 9.0 0.00 0.00 0.00 49 1014.0
20260901194547 83 360 2.0 8.0 0.00 0.00 0.00 49 1014.1
20260901194028 83 360 3.0 9.0 0.00 0.00 0.00 49 1014.2
20260901193528 83 360 3.0 9.0 0.00 0.00 0.00 49 1014.1
20260901193054 83 360 4.0 9.0 0.00 0.00 0.00 49 1014.1
20260901192529 83 360 2.0 6.0 0.00 0.00 0.00 49 1014.1
20260901192032 83 360 3.0 6.0 0.00 0.00 0.00 49 1014.2
20260901191550 83 360 2.0 5.0 0.00 0.00 0.00 49 1014.2
20260901191026 83 360 1.0 4.0 0.00 0.00 0.00 49 1014.1
20260901190526 83 0 0.0 5.0 0.00 0.00 0.00 48 1014.2
20260901190046 83 360 1.0 5.0 0.00 0.00 0.00 48 1014.2
20260901185526 83 360 1.0 5.0 0.00 0.00 0.00 48 1014.1
20260901185024 83 360 1.0 4.0 0.00 0.00 0.00 47 1014.0
20260901184546 83 360 1.0 4.0 0.00 0.00 0.00 47 1014.0
20260901184027 83 360 1.0 4.0 0.00 0.00 0.00 47 1014.0
20260901183526 83 0 1.0 4.0 0.00 0.00 0.00 47 1014.0
20260901183054 83 360 1.0 4.0 0.00 0.00 0.00 47 1014.0
20260901182525 83 360 1.0 5.0 0.00 0.00 0.00 47 1013.8
20260901182027 83 360 2.0 5.0 0.00 0.00 0.00 47 1013.8
20260901181544 83 360 2.0 5.0 0.00 0.00 0.00 47 1013.8
20260901181026 83 360 2.0 9.0 0.00 0.00 0.00 47 1013.8
20260901180525 83 360 1.0 9.0 0.00 0.00 0.00 47 1013.7
20260901180045 84 360 4.0 9.0 0.00 0.00 0.00 47 1013.7
20260901175524 84 360 3.0 8.0 0.00 0.00 0.00 47 1013.7
20260901175025 84 360 3.0 8.0 0.00 0.00 0.00 47 1013.5
20260901174552 84 360 4.0 8.0 0.00 0.00 0.00 46 1013.4
20260901174029 84 360 3.0 6.0 0.00 0.00 0.00 46 1013.4
20260901173529 84 360 2.0 8.0 0.00 0.00 0.00 46 1013.4
20260901173048 84 360 2.0 10.0 0.00 0.00 0.00 46 1013.4
20260901172526 84 360 3.0 10.0 0.00 0.00 0.00 45 1013.4
20260901172026 84 360 3.0 10.0 0.00 0.00 0.00 46 1013.3
20260901171551 84 360 4.0 10.0 0.00 0.00 0.00 46 1013.3
20260901171024 84 360 3.0 9.0 0.00 0.00 0.00 46 1013.3
20260901170529 84 360 4.0 8.0 0.00 0.00 0.00 46 1013.4
20260901170048 84 360 4.0 8.0 0.00 0.00 0.00 46 1013.4
20260901165524 84 360 3.0 8.0 0.00 0.00 0.00 47 1013.4
20260901165025 84 360 3.0 12.0 0.00 0.00 0.00 46 1013.4
20260901164545 84 119 6.0 12.0 0.00 0.00 0.00 47 1013.3
20260901164025 84 100 6.0 11.0 0.00 0.00 0.00 46 1013.1
20260901163526 85 105 4.0 13.0 0.00 0.00 0.00 46 1013.1
20260901163049 85 95 5.0 14.0 0.00 0.00 0.00 45 1013.1
20260901162527 85 102 5.0 14.0 0.00 0.00 0.00 45 1013.0
20260901162026 85 106 8.0 14.0 0.00 0.00 0.00 45 1013.0
20260901161546 85 66 6.0 12.0 0.00 0.00 0.00 45 1013.0
20260901161028 85 84 6.0 13.0 0.00 0.00 0.00 45 1013.0
20260901160527 85 109 8.0 14.0 0.00 0.00 0.00 45 1012.9
20260901160051 86 109 6.0 18.0 0.00 0.00 0.00 45 1013.1
20260901155525 86 117 11.0 18.0 0.00 0.00 0.00 44 1013.0
20260901155025 86 118 10.0 16.0 0.00 0.00 0.00 44 1013.0
20260901154544 86 114 8.0 16.0 0.00 0.00 0.00 44 1013.0
20260901154026 86 140 9.0 16.0 0.00 0.00 0.00 44 1012.9
20260901153526 86 73 8.0 15.0 0.00 0.00 0.00 44 1013.1
20260901153044 86 86 8.0 17.0 0.00 0.00 0.00 43 1013.1
20260901152526 86 105 9.0 17.0 0.00 0.00 0.00 43 1013.0
20260901152026 87 140 11.0 17.0 0.00 0.00 0.00 42 1013.0
20260901151542 87 111 8.0 20.0 0.00 0.00 0.00 42 1013.0
20260901151027 87 68 6.0 20.0 0.00 0.00 0.00 42 1012.9
20260901150527 87 121 7.0 19.0 0.00 0.00 0.00 41 1013.0
20260901150049 87 68 7.0 19.0 0.00 0.00 0.00 41 1013.0
20260901145526 87 117 9.0 16.0 0.00 0.00 0.00 41 1013.0
20260901145026 88 132 6.0 16.0 0.00 0.00 0.00 41 1013.0
20260901144545 87 111 9.0 17.0 0.00 0.00 0.00 41 1013.0
20260901144026 87 156 10.0 17.0 0.00 0.00 0.00 41 1013.0
20260901143526 87 96 10.0 18.0 0.00 0.00 0.00 41 1013.0
20260901143042 88 114 9.0 18.0 0.00 0.00 0.00 41 1013.1
20260901142524 88 126 8.0 17.0 0.00 0.00 0.00 41 1013.1
20260901142024 89 86 7.0 17.0 0.00 0.00 0.00 40 1013.1
20260901141541 89 95 7.0 17.0 0.00 0.00 0.00 40 1013.1
20260901141026 89 103 8.0 17.0 0.00 0.00 0.00 40 1013.2
20260901140524 89 136 6.0 15.0 0.00 0.00 0.00 39 1013.1
20260901140046 90 78 6.0 14.0 0.00 0.00 0.00 38 1013.3
20260901135525 90 96 6.0 13.0 0.00 0.00 0.00 38 1013.2
20260901135026 90 86 6.0 13.0 0.00 0.00 0.00 38 1013.3
20260901134600 90 106 6.0 11.0 0.00 0.00 0.00 37 1013.3
20260901134025 90 93 4.0 11.0 0.00 0.00 0.00 38 1013.3
20260901133526 90 96 3.0 15.0 0.00 0.00 0.00 39 1013.2
20260901133041 90 84 5.0 15.0 0.00 0.00 0.00 40 1013.2
20260901132526 91 85 4.0 12.0 0.00 0.00 0.00 38 1013.3
20260901132026 90 141 6.0 14.0 0.00 0.00 0.00 39 1013.2
20260901131541 90 95 5.0 14.0 0.00 0.00 0.00 40 1013.3
20260901131027 90 100 5.0 11.0 0.00 0.00 0.00 39 1013.2
20260901130527 91 74 3.0 11.0 0.00 0.00 0.00 38 1013.3
20260901130047 91 143 4.0 11.0 0.00 0.00 0.00 39 1013.3
20260901125525 91 15 4.0 11.0 0.00 0.00 0.00 37 1013.4
20260901125025 91 336 4.0 11.0 0.00 0.00 0.00 38 1013.4
20260901124553 90 138 3.0 15.0 0.00 0.00 0.00 39 1013.5
20260901124027 89 350 7.0 15.0 0.00 0.00 0.00 41 1013.5
20260901123527 89 139 5.0 13.0 0.00 0.00 0.00 40 1013.6
20260901123044 90 138 4.0 13.0 0.00 0.00 0.00 39 1013.7
20260901122527 90 124 4.0 13.0 0.00 0.00 0.00 39 1013.8
20260901122025 89 136 6.0 11.0 0.00 0.00 0.00 40 1013.8
20260901121542 90 148 4.0 11.0 0.00 0.00 0.00 39 1013.9
20260901121028 90 75 2.0 11.0 0.00 0.00 0.00 39 1013.8
20260901120528 90 113 5.0 12.0 0.00 0.00 0.00 39 1013.7
20260901120059 90 96 5.0 12.0 0.00 0.00 0.00 38 1013.8
20260901115526 90 76 6.0 13.0 0.00 0.00 0.00 37 1013.7
20260901115029 90 27 8.0 13.0 0.00 0.00 0.00 37 1013.8
20260901114543 90 82 4.0 10.0 0.00 0.00 0.00 37 1013.8
20260901114026 90 86 4.0 15.0 0.00 0.00 0.00 36 1013.8
20260901113527 91 5 5.0 15.0 0.00 0.00 0.00 34 1013.8
20260901113108 90 150 5.0 12.0 0.00 0.00 0.00 37 1013.8
20260901112525 90 109 3.0 12.0 0.00 0.00 0.00 37 1013.7
20260901112026 90 22 3.0 15.0 0.00 0.00 0.00 37 1013.8
20260901111554 91 26 7.0 16.0 0.00 0.00 0.00 33 1013.8
20260901111029 91 37 8.0 17.0 0.00 0.00 0.00 32 1013.8
20260901110526 91 71 7.0 17.0 0.00 0.00 0.00 31 1013.8
20260901110103 91 13 9.0 17.0 0.00 0.00 0.00 30 1013.8
20260901105525 91 56 3.0 12.0 0.00 0.00 0.00 33 1013.7
20260901105025 90 360 5.0 15.0 0.00 0.00 0.00 34 1013.8
20260901104545 91 61 6.0 17.0 0.00 0.00 0.00 33 1013.9
20260901104029 90 320 10.0 17.0 0.00 0.00 0.00 33 1013.9
20260901103527 91 28 5.0 15.0 0.00 0.00 0.00 33 1013.9
20260901103043 90 26 7.0 14.0 0.00 0.00 0.00 33 1013.9
20260901102528 90 115 5.0 15.0 0.00 0.00 0.00 34 1014.0
20260901102025 90 22 7.0 15.0 0.00 0.00 0.00 33 1014.0
20260901101603 90 30 5.0 14.0 0.00 0.00 0.00 34 1014.1
20260901101024 89 360 5.0 20.0 0.00 0.00 0.00 35 1014.1
20260901100525 89 279 12.0 20.0 0.00 0.00 0.00 34 1014.1
20260901100103 89 306 7.0 19.0 0.00 0.00 0.00 34 1014.1
20260901095524 89 350 7.0 19.0 0.00 0.00 0.00 35 1014.1
20260901095027 89 34 11.0 19.0 0.00 0.00 0.00 35 1014.2
20260901094541 89 38 10.0 19.0 0.00 0.00 0.00 35 1014.2
20260901094026 89 22 10.0 19.0 0.00 0.00 0.00 35 1014.1
20260901093525 89 40 9.0 19.0 0.00 0.00 0.00 35 1014.2
20260901093047 89 40 11.0 18.0 0.00 0.00 0.00 36 1014.2
20260901092524 89 26 6.0 17.0 0.00 0.00 0.00 36 1014.2
20260901092029 89 34 7.0 16.0 0.00 0.00 0.00 36 1014.2
20260901091547 89 11 6.0 17.0 0.00 0.00 0.00 36 1014.1
20260901091025 88 36 7.0 17.0 0.00 0.00 0.00 37 1014.1
20260901090524 88 355 7.0 16.0 0.00 0.00 0.00 37 1014.2
20260901090045 89 327 5.0 14.0 0.00 0.00 0.00 38 1014.1
20260901085527 88 331 8.0 14.0 0.00 0.00 0.00 39 1014.1
20260901085028 88 18 5.0 11.0 0.00 0.00 0.00 38 1014.1
20260901084546 88 30 5.0 15.0 0.00 0.00 0.00 39 1014.1
20260901084030 87 17 4.0 15.0 0.00 0.00 0.00 39 1014.1
20260901083531 87 355 8.0 20.0 0.00 0.00 0.00 40 1014.1
20260901083047 87 9 10.0 20.0 0.00 0.00 0.00 39 1014.1
20260901082525 87 344 6.0 18.0 0.00 0.00 0.00 39 1014.1
20260901082028 87 11 8.0 18.0 0.00 0.00 0.00 39 1014.1
20260901081551 87 338 10.0 18.0 0.00 0.00 0.00 38 1014.1
20260901081025 87 59 8.0 17.0 0.00 0.00 0.00 39 1014.1
20260901080526 86 5 8.0 14.0 0.00 0.00 0.00 39 1014.1
20260901080047 86 13 9.0 15.0 0.00 0.00 0.00 39 1013.9
20260901075525 86 327 6.0 15.0 0.00 0.00 0.00 39 1014.0
20260901075027 86 339 6.0 11.0 0.00 0.00 0.00 41 1014.0
20260901074545 86 350 7.0 12.0 0.00 0.00 0.00 40 1014.1
20260901074024 86 18 7.0 12.0 0.00 0.00 0.00 40 1014.0
20260901073526 86 340 3.0 12.0 0.00 0.00 0.00 41 1013.9
20260901073043 85 313 4.0 13.0 0.00 0.00 0.00 41 1013.9
20260901072528 85 43 4.0 13.0 0.00 0.00 0.00 43 1013.9
20260901072026 85 25 5.0 13.0 0.00 0.00 0.00 44 1013.9
20260901071551 84 53 5.0 11.0 0.00 0.00 0.00 44 1013.9
20260901071030 84 19 4.0 15.0 0.00 0.00 0.00 45 1013.8
20260901070525 83 360 7.0 17.0 0.00 0.00 0.00 45 1013.7
20260901070057 83 336 6.0 17.0 0.00 0.00 0.00 44 1013.7
20260901065527 83 33 10.0 17.0 0.00 0.00 0.00 45 1013.6
20260901065025 83 355 9.0 16.0 0.00 0.00 0.00 44 1013.7
20260901064543 83 334 6.0 14.0 0.00 0.00 0.00 46 1013.6
20260901064027 82 355 6.0 12.0 0.00 0.00 0.00 46 1013.7
20260901063527 82 55 3.0 10.0 0.00 0.00 0.00 47 1013.7
20260901063048 82 360 3.0 10.0 0.00 0.00 0.00 47 1013.8
20260901062527 82 90 5.0 10.0 0.00 0.00 0.00 47 1013.8
20260901062031 81 65 4.0 8.0 0.00 0.00 0.00 47 1013.8
20260901061550 81 344 4.0 8.0 0.00 0.00 0.00 48 1013.8
20260901061025 81 5 2.0 9.0 0.00 0.00 0.00 50 1013.9
20260901060525 81 337 2.0 9.0 0.00 0.00 0.00 50 1013.9
20260901060052 81 330 4.0 9.0 0.00 0.00 0.00 50 1013.9
20260901055526 80 355 3.0 7.0 0.00 0.00 0.00 50 1013.9
20260901055030 80 311 3.0 9.0 0.00 0.00 0.00 50 1013.9
20260901054550 80 332 4.0 9.0 0.00 0.00 0.00 49 1013.8
20260901054029 80 10 2.0 9.0 0.00 0.00 0.00 50 1013.9
20260901053525 80 5 2.0 9.0 0.00 0.00 0.00 50 1013.9
20260901053105 80 352 4.0 9.0 0.00 0.00 0.00 50 1013.9
20260901052527 79 336 2.0 8.0 0.00 0.00 0.00 50 1013.8
20260901052025 79 22 4.0 8.0 0.00 0.00 0.00 50 1013.8
20260901051542 79 12 4.0 9.0 0.00 0.00 0.00 50 1013.8
20260901051025 79 360 3.0 9.0 0.00 0.00 0.00 50 1013.7
20260901050525 79 360 2.0 5.0 0.00 0.00 0.00 50 1013.8
20260901050049 79 360 2.0 5.0 0.00 0.00 0.00 50 1013.8
20260901045525 79 360 2.0 7.0 0.00 0.00 0.00 50 1013.7
20260901045024 79 28 2.0 7.0 0.00 0.00 0.00 49 1013.7
20260901044614 79 338 3.0 5.0 0.00 0.00 0.00 49 1013.6
20260901044028 79 17 2.0 8.0 0.00 0.00 0.00 49 1013.7
20260901043527 79 13 4.0 8.0 0.00 0.00 0.00 49 1013.5
20260901043046 78 355 3.0 8.0 0.00 0.00 0.00 49 1013.4
20260901042531 78 360 1.0 5.0 0.00 0.00 0.00 49 1013.4
20260901042034 78 350 1.0 4.0 0.00 0.00 0.00 49 1013.4
20260901041541 78 5 0.0 4.0 0.00 0.00 0.00 49 1013.4
20260901041027 78 24 2.0 4.0 0.00 0.00 0.00 50 1013.4
20260901040526 78 360 2.0 7.0 0.00 0.00 0.00 50 1013.3
20260901040051 78 23 2.0 7.0 0.00 0.00 0.00 50 1013.3
20260901035529 78 44 1.0 4.0 0.00 0.00 0.00 50 1013.2
20260901035025 78 44 1.0 4.0 0.00 0.00 0.00 49 1013.2
20260901034555 78 40 2.0 4.0 0.00 0.00 0.00 49 1013.2
20260901034029 78 46 0.0 3.0 0.00 0.00 0.00 48 1013.2
20260901033525 78 46 1.0 3.0 0.00 0.00 0.00 48 1013.2
20260901033046 79 44 1.0 4.0 0.00 0.00 0.00 47 1013.1
20260901032525 79 44 1.0 4.0 0.00 0.00 0.00 47 1013.1
20260901032025 79 21 1.0 4.0 0.00 0.00 0.00 46 1013.1
20260901031551 79 13 1.0 4.0 0.00 0.00 0.00 46 1013.1
20260901031024 78 0 1.0 3.0 0.00 0.00 0.00 46 1013.1
20260901030527 78 231 0.0 4.0 0.00 0.00 0.00 47 1013.2
20260901030053 78 277 1.0 4.0 0.00 0.00 0.00 47 1013.2
20260901025526 78 0 0.0 2.0 0.00 0.00 0.00 47 1013.3
20260901025025 79 11 0.0 4.0 0.00 0.00 0.00 46 1013.2
20260901024548 79 5 1.0 5.0 0.00 0.00 0.00 45 1013.1
20260901024025 79 355 2.0 5.0 0.00 0.00 0.00 45 1013.2
20260901023525 79 360 0.0 5.0 0.00 0.00 0.00 45 1013.2
20260901023045 80 38 1.0 7.0 0.00 0.00 0.00 44 1013.1
20260901022524 80 59 3.0 11.0 0.00 0.00 0.00 44 1013.1
20260901022024 80 55 4.0 11.0 0.00 0.00 0.00 44 1013.2
20260901021606 80 17 2.0 9.0 0.00 0.00 0.00 44 1013.1
20260901021027 80 330 2.0 9.0 0.00 0.00 0.00 44 1013.2
20260901020530 80 29 3.0 9.0 0.00 0.00 0.00 44 1013.1
20260901020101 80 338 4.0 9.0 0.00 0.00 0.00 44 1013.1
20260901015527 80 349 4.0 9.0 0.00 0.00 0.00 44 1013.0
20260901015031 80 15 3.0 9.0 0.00 0.00 0.00 44 1013.0
20260901014549 80 27 4.0 9.0 0.00 0.00 0.00 44 1013.0
20260901014028 80 17 3.0 9.0 0.00 0.00 0.00 43 1013.0
20260901013527 80 15 3.0 9.0 0.00 0.00 0.00 44 1013.0
20260901013047 80 5 5.0 9.0 0.00 0.00 0.00 43 1013.1
20260901012527 80 11 3.0 9.0 0.00 0.00 0.00 44 1013.1
20260901012027 80 348 3.0 9.0 0.00 0.00 0.00 44 1013.1
20260901011544 80 339 4.0 9.0 0.00 0.00 0.00 44 1013.2
20260901011027 80 18 3.0 8.0 0.00 0.00 0.00 44 1013.1
20260901010531 80 27 1.0 6.0 0.00 0.00 0.00 44 1013.2
20260901010043 80 0 2.0 5.0 0.00 0.00 0.00 44 1013.1
20260901005525 80 341 2.0 7.0 0.00 0.00 0.00 43 1013.2
20260901005026 80 18 3.0 8.0 0.00 0.00 0.00 43 1013.2
20260901004554 80 335 2.0 9.0 0.00 0.00 0.00 43 1013.2
20260901004024 80 32 3.0 9.0 0.00 0.00 0.00 43 1013.2
20260901003526 80 40 3.0 9.0 0.00 0.00 0.00 43 1013.2
20260901003052 80 19 4.0 11.0 0.00 0.00 0.00 43 1013.3
20260901002525 80 5 4.0 11.0 0.00 0.00 0.00 42 1013.2
20260901002028 80 27 4.0 10.0 0.00 0.00 0.00 42 1013.2
20260901001558 80 15 2.0 6.0 0.00 0.00 0.00 42 1013.2
20260901001024 80 31 3.0 9.0 0.00 0.00 0.00 43 1013.2
20260901000524 80 19 3.0 9.0 0.00 0.00 0.00 43 1013.2
20260901000049 79 355 1.0 6.0 0.00 0.00 0.00 44 1013.3
20260831235525 79 0 1.0 4.0 0.00 0.00 0.00 44 1013.4
20260831235026 79 360 2.0 4.0 0.00 0.00 0.00 44 1013.4
20260831234602 79 360 0.0 4.0 0.00 0.00 0.00 44 1013.5
20260831234026 79 0 2.0 4.0 0.00 0.00 0.00 44 1013.4
20260831233524 79 360 0.0 3.0 0.00 0.00 0.00 43 1013.5
20260831233049 79 360 1.0 3.0 0.00 0.00 0.00 44 1013.5
20260831232526 78 0 0.0 3.0 0.00 0.00 0.00 44 1013.7
20260831232028 78 0 0.0 3.0 0.00 0.00 0.00 44 1013.6
20260831231547 78 138 2.0 4.0 0.00 0.00 0.00 44 1013.6
20260831231025 78 135 2.0 4.0 0.00 0.00 0.00 44 1013.7
20260831230526 79 128 1.0 4.0 0.00 0.00 0.00 43 1013.8
20260831230051 79 360 0.0 3.0 0.00 0.00 0.00 43 1013.8
20260831225525 80 360 0.0 5.0 0.00 0.00 0.00 41 1013.8
20260831225027 80 0 1.0 6.0 0.00 0.00 0.00 41 1013.9
20260831224543 80 360 2.0 8.0 0.00 0.00 0.00 41 1013.9
20260831224027 80 360 2.0 8.0 0.00 0.00 0.00 41 1013.8
20260831223525 80 360 3.0 8.0 0.00 0.00 0.00 41 1013.9
20260831223045 80 360 4.0 8.0 0.00 0.00 0.00 42 1013.9
20260831222527 80 360 3.0 8.0 0.00 0.00 0.00 42 1013.9
20260831222027 80 360 4.0 8.0 0.00 0.00 0.00 42 1014.0
20260831221548 80 360 3.0 7.0 0.00 0.00 0.00 43 1014.1
20260831221025 79 360 1.0 3.0 0.00 0.00 0.00 43 1014.2
20260831220526 79 323 1.0 3.0 0.00 0.00 0.00 43 1014.3
20260831220106 79 0 0.0 4.0 0.00 0.00 0.00 44 1014.3
20260831215527 80 0 0.0 6.0 0.00 0.00 0.00 42 1014.2
20260831215024 80 360 1.0 8.0 0.00 0.00 0.00 42 1014.3
20260831214548 80 360 2.0 8.0 0.00 0.00 0.00 42 1014.3
20260831214025 80 360 3.0 8.0 0.00 0.00 0.00 42 1014.1
20260831213525 80 330 2.0 8.0 0.00 0.00 0.00 43 1014.2
20260831213056 80 313 2.0 6.0 0.00 0.00 0.00 42 1014.2
20260831212530 80 303 2.0 6.0 0.00 0.00 0.00 42 1014.1
20260831212027 80 308 2.0 6.0 0.00 0.00 0.00 42 1014.1
20260831211603 80 360 2.0 8.0 0.00 0.00 0.00 42 1014.1
20260831211028 80 360 3.0 8.0 0.00 0.00 0.00 42 1014.1
20260831210526 80 360 2.0 6.0 0.00 0.00 0.00 43 1014.1
20260831210051 80 360 1.0 6.0 0.00 0.00 0.00 44 1014.1